Location: Kaarina
(60.4167°N, 22.4167°E)
Time: 17:08:28
(UTC+03:00)

Helios 1B rocket - Pass Details

Date: 24 August 2019
Orbit: 574 x 585 km, 98.2° (Epoch: 22 September)

Event Time Altitude Azimuth Distance (km) Brightness Sun altitude
Rises 23:44:22 0° 25° (NNE) 2,818 6.5 -15.4°
Reaches altitude 10° 23:47:15 10° 47° (NE) 1,910 5.3 -15.6°
Maximum altitude 23:49:54 16° 87° (E) 1,530 4.3 -15.7°
Enters shadow 23:50:47 16° 102° (ESE) 1,574 4.3 -15.8°
